Find STARLINK-37258

NORAD ID: 70584 Constellation: starlink operational
LEOCIRCULAR

Live Position

Loading 3D Globe...

About STARLINK-37258

Description loading...

Upcoming Passes

Passes for default location (London). Set your location on the main map for personalized predictions.

Altitude History

Loading altitude history...

Two-Line Element Set

1 70584C 26099A 26121.88381944 .03916700 00000+0 45448-2 0 1216
2 70584 53.1646 27.7978 0008988 277.8243 129.3814 16.06106759 17
Epoch: May 1, 2026 • Age: 28 hours